SCP
0 0 0 0 0 0 0 0 0 0 0 0 0 0 0 0 0 0 0 0 0 0 0 0 0 0 0 0 0 0 0 0 0 0 0 0 0 0 0 0 0 0 0 0
0 0 0 0 0 0 0 0 0 0 0 0 0 0 0 0 0 0 0 0 0 0 0 0 0 0 0 0 0 0 0 0 0 0 0 0 0 0 0 0 0 0 0 0
0 0 0 0 0 0 0 0 0 0 0 0 0 0 0 0 0 0 0 0 0 0 0 0 0 0 0 0 0 0 0 0 0 0 0 0 0 0 0 0 0 0 -0 -0
0 0 0 0 0 0 0 0 0 0 0 0 0 0 0 0 0 0 0 0 0 0 0 0 0 0 0 0 0 0 0 0 0 0 0 0 0 0 -0 -0 0 -0 0 0
0 0 0 0 0 0 0 0 0 0 0 0 0 0 0 0 0 0 0 0 0 0 0 0 0 0 0 0 0 0 0 0 0 0 0 0 0 -0 -0 -0 0 -0 -0 -0
0 0 0 0 0 0 0 0 0 0 0 0 0 0 0 0 0 0 0 0 0 0 0 0 0 0 0 0 0 0 0 0 0 0 0 -0 0 -0 -0 -0 0 0 0 -0
0 0 0 0 0 0 0 0 0 0 0 0 0 0 0 0 0 0 0 0 0 0 0 0 0 0 0 0 0 0 0 0 0 0 0 0 0 0 -0 0 0 -0 0 0
-0 0 0 0 0 0 0 0 0 0 0 0 0 0 0 0 0 0 0 0 0 0 0 0 0 0 0 0 -0 0 0 0 0 0 0 0 0 0 -0 -0 -0 0 -0 -0
-0 -0 0 0 0 0 0 0 0 0 0 0 0 0 0 0 0 0 0 0 0 0 0 0 0 0 -0 0 0 -0 0 0 0 0 0 0 0 0 0 0 0 0 0 0
0 0 -0 0 0 0 0 0 0 0 0 0 0 0 0 0 0 0 0 0 0 0 0 0 0 0 0 0 0 0 0 0 0 0 0 0 0 0 0 0 0 0 0 0
0 0 0 0 0 0 0 0 0 0 0 0 0 0 0 0 0 0 0 0 0 0 0 0 0 0 0 0 0 0 0 0 0 0 0 0 0 0 0 0 0 0 0 -0
0 0 0 0 0 0 0 0 0 0 0 0 0 0 0 0 0 0 0 0 0 0 0 0 0 0 0 0 0 0 -0 0 0 0 0 0 0 0 0 0 0 0 0 0
0 0 0 0 0 0 0 0 0 0 0 0 0 0 0 0 0 0 0 0 0 0 0 0 0 0 0 0 0 0 0 0 0 0 0 0 0 0 0 0 0 0 0 0
0 0 0 0 0 0 0 0 0 0 0 0 0 0 0 0 0 0 0 0 0 0 0 0 0 0 0 0 0 0 0 0 0 0 0 0 0 0 0 0 0 0 -0 -0
0 0 0 0 0 0 0 0 0 0 0 0 0 0 0 0 0 0 0 0 0 0 0 0 0 0 0 0 0 0 0 0 0 0 -0 0 0 0 0 0 0 0 0 -0
0 0 0 0 0 0 0 0 0 0 0 0 0 0 0 0 0 0 0 0 0 0 0 0 0 0 0 -0 0 0 -0 -0 -0 0 0 0 -0 0 0 -0 0 0 0 0
0 0 0 0 0 0 0 0 0 0 0 0 0 0 0 0 0 0 0 0 0 0 0 0 0 0 0 0 0 0 -0 -0 0 -0 -0 -0 0 0 -0 -0 -0 0 0 0
0 0 0 0 0 0 0 0 0 0 0 0 0 0 0 0 0 0 0 0 0 0 0 0 0 0 0 -0 0 0 0 -0 0 0 0 -0 -0 0 -0 -0 -0 0 0 0
0 0 0 0 0 0 0 0 0 0 0 0 0 0 0 0 0 0 0 0 0 0 0 0 0 0 0 0 0 0 0 0 0 0 0 -0 -0 0 0 0 -0 -0 0 0
0 0 0 0 0 0 0 0 0 0 0 0 0 0 0 0 0 0 0 0 0 0 0 0 0 0 0 0 0 0 0 0 0 0 0 0 0 0 0 0 -0 -0 0 0
0 0 0 0 0 0 0 0 0 0 0 0 0 0 0 0 0 0 0 0 0 0 0 0 0 0 0 0 0 0 0 0 0 -0 -0 -0 0 0 0 -0 -0 -0 -0 0
0 0 0 0 0 0 0 0 0 0 0 0 0 0 0 0 0 0 0 0 0 0 0 0 0 0 0 0 0 0 0 -0 -0 -0 -0 -0 0 0 -0 -0 -0 -0 -0 -0
0 0 0 0 0 0 0 0 0 0 0 0 0 0 0 0 0 0 0 0 0 0 0 0 0 0 0 -0 -0 -0 -0 -0 -0 -0 -0 -0 -0 0 -0 -0 -0 -0 0 0
0 0 0 0 0 0 0 0 0 0 0 0 0 0 0 0 0 0 0 0 0 0 0 0 0 0 0 -0 -0 -0 -0 -0 -0 -0 -0 -0 -0 0 -0 -0 -0 -0 -0 0
0 0 0 0 0 0 0 0 0 0 0 0 0 0 0 0 0 0 0 0 0 0 0 0 0 0 -0 -0 -0 -0 -0 -0 -0 -0 -0 -0 -0 -0 -0 -0 -0 -0 -0 0
0 0 0 0 0 0 0 0 0 0 0 0 0 0 0 0 0 0 0 0 0 0 0 0 0 -0 -0 -0 -0 -0 -0 -0 -0 -0 -0 -0 -0 -0 -0 -0 -0 0 0 0
0 0 0 0 0 0 0 0 0 0 0 0 0 0 0 0 0 0 0 0 0 0 0 0 -0 -0 -0 -0 -0 -0 -0 -0 -0 -0 -0 -0 -0 -0 -0 -0 -0 0 0 0
Wind_Speed_500mb
14 12 15 15 14 9 15 9 4 3 18 2 2 4 3 3 4 2 2 1 3 6 4 4 6 5 3 2 1 1 3 3 7 5 4 3 2 11 8 8 10 2 5 16
13 14 8 9 7 13 19 9 7 4 14 6 6 3 3 2 5 5 7 6 9 3 5 3 6 2 8 7 3 4 6 6 6 2 3 2 4 7 6 8 5 11 10 13
14 15 4 6 8 24 23 10 3 7 8 4 4 5 5 5 6 3 4 2 3 3 3 6 6 4 4 5 10 4 4 5 7 6 5 7 4 7 9 9 7 7 15 19
18 13 11 8 9 26 24 15 7 9 4 6 3 5 3 6 7 4 7 4 9 9 3 4 7 6 4 5 5 4 3 7 5 14 21 9 11 13 16 19 12 13 10 13
23 20 15 10 12 18 30 10 9 12 8 12 9 7 8 10 5 10 7 8 7 12 10 12 6 3 6 3 4 3 4 4 3 10 3 8 12 18 21 24 6 21 24 46
23 20 16 13 17 24 23 19 15 9 15 9 6 7 10 8 7 10 6 9 1 6 13 8 12 10 8 6 1 6 5 3 4 10 3 10 14 15 21 10 7 16 11 22
24 23 20 21 22 29 16 23 19 11 7 6 9 8 11 10 9 4 4 5 5 2 10 17 10 10 10 6 10 16 3 3 3 8 12 3 10 3 9 12 12 28 15 14
17 18 16 16 22 19 21 21 17 10 3 7 5 8 8 12 9 5 2 3 4 13 6 3 4 3 8 6 5 4 6 4 4 4 4 17 5 6 12 11 12 18 29 27
18 12 13 10 25 19 25 17 20 9 12 7 8 6 11 6 4 2 5 3 5 4 2 2 2 3 6 7 9 3 5 1 3 2 2 7 12 8 10 6 8 7 19 12
27 18 12 10 15 25 23 19 16 11 8 5 11 6 7 9 6 3 5 6 4 3 3 3 4 6 5 2 5 7 4 2 6 6 7 16 14 5 13 10 12 6 7 18
39 32 20 12 10 11 28 28 25 18 16 8 11 8 7 11 6 4 9 2 2 3 3 3 5 3 7 1 6 9 10 9 5 4 2 13 16 8 9 11 15 19 19 19
35 36 30 20 13 10 10 26 32 30 16 6 12 14 13 13 8 4 10 4 5 9 3 2 2 4 1 5 5 2 4 9 8 17 12 8 14 28 37 51 56 54 45 49
47 37 42 27 22 15 10 10 15 23 26 20 23 21 30 29 33 25 11 8 12 6 5 5 4 8 3 4 9 3 6 8 6 2 6 18 39 55 56 51 54 54 34 40
29 28 25 28 26 23 15 11 12 16 10 6 6 12 10 12 19 39 45 34 17 11 8 5 4 3 8 5 6 6 9 15 6 12 28 48 28 24 54 42 29 35 46 47
37 30 23 19 35 34 21 17 14 15 8 8 5 10 16 17 18 26 25 29 30 18 10 4 4 5 4 6 4 6 9 10 8 9 17 22 41 67 55 62 70 72 69 69
36 29 25 23 21 35 35 12 25 29 22 3 1 5 2 5 2 6 14 20 20 11 8 7 7 8 5 3 7 16 23 25 29 33 65 79 85 80 66 51 70 64 61 42
29 25 24 26 32 31 31 8 6 27 30 6 2 3 4 2 9 6 7 14 10 7 4 7 4 4 9 4 7 11 53 70 74 63 51 52 42 61 85 76 71 61 59 59
24 20 17 20 28 26 29 22 10 26 14 5 5 6 3 6 5 5 5 6 8 8 5 3 6 5 7 5 26 58 62 70 44 46 65 54 54 57 51 47 44 46 45 45
29 19 16 21 32 14 28 35 28 23 5 9 6 8 7 13 6 5 5 6 3 3 3 5 6 2 6 6 34 50 56 47 61 72 60 48 55 59 59 56 51 53 53 52
27 36 20 14 16 20 49 27 30 17 14 11 6 11 6 17 12 9 6 4 3 1 7 6 4 5 2 24 35 41 45 48 50 64 82 85 79 70 71 67 62 58 58 55
33 18 11 25 56 45 12 10 8 9 6 13 11 31 9 20 6 7 11 5 4 1 7 6 3 3 8 32 43 47 51 52 51 48 49 49 53 61 66 69 65 64 56 52
24 19 32 38 10 6 8 5 3 5 11 15 14 14 10 13 9 8 6 4 1 8 2 5 4 7 9 33 45 55 60 63 64 63 63 61 58 54 54 56 56 58 56 51
38 14 13 10 5 5 12 13 6 2 13 21 16 6 13 10 8 7 6 8 8 5 2 7 8 13 8 28 44 59 66 71 75 76 73 68 63 54 50 51 50 53 54 46
9 12 10 8 3 8 8 9 10 12 18 36 34 13 9 8 7 4 8 5 6 3 2 10 6 10 20 34 54 72 80 83 82 82 81 73 65 58 48 46 48 51 48 43
8 9 9 6 7 4 3 14 10 12 20 47 22 12 8 4 5 4 6 4 8 10 9 6 9 24 24 38 53 65 76 84 88 81 78 73 63 54 47 43 43 40 36 33
7 7 9 7 7 5 10 16 17 24 37 24 10 6 7 5 6 8 15 11 11 7 7 8 20 35 36 47 59 65 72 78 86 81 72 67 58 49 42 38 36 33 30 25
9 4 9 16 10 24 22 17 23 38 28 4 9 8 17 4 2 6 8 11 8 11 14 36 52 55 55 54 64 78 83 83 82 85 69 61 50 41 34 29 28 26 24 21
Wind_Direction_500mb
321 307 340 347 154 165 174 184 233 264 167 139 355 165 205 119 155 146 197 197 245 204 269 253 250 251 246 72 308 206 154 263 262 244 257 259 228 196 148 122 255 196 147 273
291 315 322 355 200 185 183 196 198 280 181 150 233 129 86 92 177 194 180 210 207 149 222 297 239 289 172 172 205 167 157 224 279 251 58 354 233 209 144 119 77 206 145 260
283 296 306 325 214 187 183 178 186 214 213 179 156 151 208 214 211 218 212 230 129 117 318 245 278 257 177 186 196 216 329 257 249 248 210 120 233 229 196 138 129 191 231 286
285 297 309 270 206 197 189 190 202 178 186 213 195 143 186 180 193 210 210 238 217 176 256 291 235 243 281 181 206 193 213 241 219 263 273 200 231 202 194 201 192 192 258 230
264 281 290 240 209 205 203 198 172 158 151 134 144 203 216 219 136 158 219 224 177 202 217 202 260 196 198 327 168 202 190 260 284 270 159 187 258 222 215 219 234 276 273 286
249 265 269 224 203 191 204 216 168 178 171 150 158 205 205 206 101 233 240 205 208 249 267 298 289 284 259 219 181 214 220 266 346 268 300 300 295 223 180 195 222 182 188 228
238 257 252 224 195 193 195 180 178 168 229 174 198 193 186 165 175 262 210 169 160 257 292 308 286 272 268 244 231 226 271 197 234 279 339 327 246 228 171 186 227 220 278 251
226 227 242 224 209 197 206 196 191 181 179 145 238 205 161 188 185 174 241 171 213 292 332 301 342 302 19 313 256 228 212 204 270 288 238 293 342 239 149 163 285 207 230 257
215 218 223 208 205 209 213 213 208 170 131 233 205 155 178 169 138 176 171 297 339 83 301 26 85 232 201 305 337 263 199 101 227 49 291 232 245 279 199 133 339 230 209 254
218 217 201 194 199 216 208 217 199 188 155 221 186 177 173 164 144 156 146 162 138 129 206 210 170 285 189 287 194 185 153 174 217 221 277 285 257 236 152 69 240 292 279 274
219 221 207 196 196 206 208 208 206 206 202 217 211 187 164 156 173 155 172 79 180 93 185 221 248 177 238 43 224 181 169 160 191 127 281 295 168 124 121 226 295 295 312 328
212 218 219 209 203 199 193 212 208 212 204 221 214 242 217 212 201 196 198 243 176 209 131 222 29 315 255 184 287 41 234 198 181 195 228 293 217 256 288 299 293 291 290 304
205 206 215 198 210 204 190 186 188 199 215 234 239 243 242 230 227 224 209 228 222 201 212 180 216 247 157 197 245 239 249 156 244 351 265 245 289 289 299 297 286 303 307 297
199 202 207 217 217 209 201 198 194 190 170 158 184 217 243 213 224 226 230 238 252 262 209 226 174 188 187 255 272 197 217 151 218 259 286 292 299 327 326 329 319 314 319 312
197 208 211 212 208 198 218 218 212 207 212 193 175 214 251 269 250 230 213 229 237 221 187 169 225 258 296 300 279 259 199 201 190 248 285 258 292 310 310 308 304 307 305 303
199 209 225 213 206 210 196 229 231 220 212 235 69 203 299 33 184 141 193 202 219 210 190 189 226 234 253 316 280 267 269 277 293 294 302 303 298 303 310 314 314 312 307 301
201 218 217 205 197 216 189 203 258 202 194 222 18 325 196 132 103 98 166 200 213 217 226 231 216 214 192 214 229 328 335 328 318 320 330 320 310 307 306 305 305 307 301 296
197 194 194 193 194 224 218 203 156 161 171 159 106 274 221 158 140 139 155 149 186 209 256 251 198 202 229 271 332 339 338 333 333 317 324 317 319 320 326 325 321 313 309 315
176 171 183 176 199 210 190 189 174 173 173 175 152 151 218 161 148 147 139 179 185 215 196 245 171 253 224 278 328 343 348 340 327 332 340 334 337 334 339 341 332 318 311 308
166 177 177 183 186 183 156 151 171 196 207 213 207 172 172 167 165 166 141 173 210 207 242 184 111 247 8 351 359 354 351 352 349 344 345 343 340 338 334 333 333 326 313 306
180 186 144 145 153 161 172 141 144 154 210 211 219 192 154 188 129 200 200 183 179 190 257 157 208 265 257 357 6 6 2 4 5 356 348 341 332 329 327 328 330 325 318 311
180 156 135 149 155 132 135 157 138 144 216 187 171 190 177 147 163 105 164 167 245 245 143 82 270 240 329 4 6 9 7 5 4 3 357 351 347 340 332 328 325 328 325 317
146 147 142 158 156 71 169 187 256 188 182 176 163 133 150 137 161 89 163 195 229 133 102 227 217 207 316 360 4 7 9 6 3 360 357 352 348 346 343 339 337 336 335 328
167 142 143 164 251 248 184 182 185 197 187 167 150 120 144 132 140 164 181 206 100 74 223 231 223 299 323 353 7 7 3 1 359 356 352 349 346 346 346 342 343 342 346 345
149 169 179 179 193 205 234 205 183 176 170 156 120 84 108 136 149 205 132 40 246 209 225 214 205 345 345 349 358 0 360 355 353 351 348 345 342 343 346 347 349 350 354 355
135 161 92 118 97 171 187 191 175 163 152 130 103 107 65 232 167 171 207 140 221 244 213 235 318 338 350 348 349 350 351 351 345 344 343 339 337 338 342 342 346 355 2 4
158 195 161 179 172 177 185 201 172 163 156 129 118 104 213 101 195 256 186 199 224 214 276 316 325 336 334 333 334 333 336 341 340 337 336 333 333 331 332 332 350 357 3 12
Wind_Speed_850mb
14 12 15 15 14 9 15 9 4 3 18 2 2 4 3 3 4 2 2 1 3 6 4 4 6 5 3 2 1 1 3 3 7 5 4 3 2 11 8 8 10 2 5 16
13 14 8 9 7 13 19 9 7 4 14 6 6 3 3 2 5 5 7 6 9 3 5 3 6 2 8 7 3 4 6 6 6 2 3 2 4 7 6 8 5 11 10 13
14 15 4 6 8 24 23 10 3 7 8 4 4 5 5 5 6 3 4 2 3 3 3 6 6 4 4 5 10 4 4 5 7 6 5 7 4 7 9 9 7 7 15 19
18 13 11 8 9 26 24 15 7 9 4 6 3 5 3 6 7 4 7 4 9 9 3 4 7 6 4 5 5 4 3 7 5 14 21 9 11 13 16 19 12 13 10 13
23 20 15 10 12 18 30 10 9 12 8 12 9 7 8 10 5 10 7 8 7 12 10 12 6 3 6 3 4 3 4 4 3 10 3 8 12 18 21 24 6 21 24 46
23 20 16 13 17 24 23 19 15 9 15 9 6 7 10 8 7 10 6 9 1 6 13 8 12 10 8 6 1 6 5 3 4 10 3 10 14 15 21 10 7 16 11 22
24 23 20 21 22 29 16 23 19 11 7 6 9 8 11 10 9 4 4 5 5 2 10 17 10 10 10 6 10 16 3 3 3 8 12 3 10 3 9 12 12 28 15 14
17 18 16 16 22 19 21 21 17 10 3 7 5 8 8 12 9 5 2 3 4 13 6 3 4 3 8 6 5 4 6 4 4 4 4 17 5 6 12 11 12 18 29 27
18 12 13 10 25 19 25 17 20 9 12 7 8 6 11 6 4 2 5 3 5 4 2 2 2 3 6 7 9 3 5 1 3 2 2 7 12 8 10 6 8 7 19 12
27 18 12 10 15 25 23 19 16 11 8 5 11 6 7 9 6 3 5 6 4 3 3 3 4 6 5 2 5 7 4 2 6 6 7 16 14 5 13 10 12 6 7 18
39 32 20 12 10 11 28 28 25 18 16 8 11 8 7 11 6 4 9 2 2 3 3 3 5 3 7 1 6 9 10 9 5 4 2 13 16 8 9 11 15 19 19 19
35 36 30 20 13 10 10 26 32 30 16 6 12 14 13 13 8 4 10 4 5 9 3 2 2 4 1 5 5 2 4 9 8 17 12 8 14 28 37 51 56 54 45 49
47 37 42 27 22 15 10 10 15 23 26 20 23 21 30 29 33 25 11 8 12 6 5 5 4 8 3 4 9 3 6 8 6 2 6 18 39 55 56 51 54 54 34 40
29 28 25 28 26 23 15 11 12 16 10 6 6 12 10 12 19 39 45 34 17 11 8 5 4 3 8 5 6 6 9 15 6 12 28 48 28 24 54 42 29 35 46 47
37 30 23 19 35 34 21 17 14 15 8 8 5 10 16 17 18 26 25 29 30 18 10 4 4 5 4 6 4 6 9 10 8 9 17 22 41 67 55 62 70 72 69 69
36 29 25 23 21 35 35 12 25 29 22 3 1 5 2 5 2 6 14 20 20 11 8 7 7 8 5 3 7 16 23 25 29 33 65 79 85 80 66 51 70 64 61 42
29 25 24 26 32 31 31 8 6 27 30 6 2 3 4 2 9 6 7 14 10 7 4 7 4 4 9 4 7 11 53 70 74 63 51 52 42 61 85 76 71 61 59 59
24 20 17 20 28 26 29 22 10 26 14 5 5 6 3 6 5 5 5 6 8 8 5 3 6 5 7 5 26 58 62 70 44 46 65 54 54 57 51 47 44 46 45 45
29 19 16 21 32 14 28 35 28 23 5 9 6 8 7 13 6 5 5 6 3 3 3 5 6 2 6 6 34 50 56 47 61 72 60 48 55 59 59 56 51 53 53 52
27 36 20 14 16 20 49 27 30 17 14 11 6 11 6 17 12 9 6 4 3 1 7 6 4 5 2 24 35 41 45 48 50 64 82 85 79 70 71 67 62 58 58 55
33 18 11 25 56 45 12 10 8 9 6 13 11 31 9 20 6 7 11 5 4 1 7 6 3 3 8 32 43 47 51 52 51 48 49 49 53 61 66 69 65 64 56 52
24 19 32 38 10 6 8 5 3 5 11 15 14 14 10 13 9 8 6 4 1 8 2 5 4 7 9 33 45 55 60 63 64 63 63 61 58 54 54 56 56 58 56 51
38 14 13 10 5 5 12 13 6 2 13 21 16 6 13 10 8 7 6 8 8 5 2 7 8 13 8 28 44 59 66 71 75 76 73 68 63 54 50 51 50 53 54 46
9 12 10 8 3 8 8 9 10 12 18 36 34 13 9 8 7 4 8 5 6 3 2 10 6 10 20 34 54 72 80 83 82 82 81 73 65 58 48 46 48 51 48 43
8 9 9 6 7 4 3 14 10 12 20 47 22 12 8 4 5 4 6 4 8 10 9 6 9 24 24 38 53 65 76 84 88 81 78 73 63 54 47 43 43 40 36 33
7 7 9 7 7 5 10 16 17 24 37 24 10 6 7 5 6 8 15 11 11 7 7 8 20 35 36 47 59 65 72 78 86 81 72 67 58 49 42 38 36 33 30 25
9 4 9 16 10 24 22 17 23 38 28 4 9 8 17 4 2 6 8 11 8 11 14 36 52 55 55 54 64 78 83 83 82 85 69 61 50 41 34 29 28 26 24 21
Wind_Direction_850mb
321 307 340 347 154 165 174 184 233 264 167 139 355 165 205 119 155 146 197 197 245 204 269 253 250 251 246 72 308 206 154 263 262 244 257 259 228 196 148 122 255 196 147 273
291 315 322 355 200 185 183 196 198 280 181 150 233 129 86 92 177 194 180 210 207 149 222 297 239 289 172 172 205 167 157 224 279 251 58 354 233 209 144 119 77 206 145 260
283 296 306 325 214 187 183 178 186 214 213 179 156 151 208 214 211 218 212 230 129 117 318 245 278 257 177 186 196 216 329 257 249 248 210 120 233 229 196 138 129 191 231 286
285 297 309 270 206 197 189 190 202 178 186 213 195 143 186 180 193 210 210 238 217 176 256 291 235 243 281 181 206 193 213 241 219 263 273 200 231 202 194 201 192 192 258 230
264 281 290 240 209 205 203 198 172 158 151 134 144 203 216 219 136 158 219 224 177 202 217 202 260 196 198 327 168 202 190 260 284 270 159 187 258 222 215 219 234 276 273 286
249 265 269 224 203 191 204 216 168 178 171 150 158 205 205 206 101 233 240 205 208 249 267 298 289 284 259 219 181 214 220 266 346 268 300 300 295 223 180 195 222 182 188 228
238 257 252 224 195 193 195 180 178 168 229 174 198 193 186 165 175 262 210 169 160 257 292 308 286 272 268 244 231 226 271 197 234 279 339 327 246 228 171 186 227 220 278 251
226 227 242 224 209 197 206 196 191 181 179 145 238 205 161 188 185 174 241 171 213 292 332 301 342 302 19 313 256 228 212 204 270 288 238 293 342 239 149 163 285 207 230 257
215 218 223 208 205 209 213 213 208 170 131 233 205 155 178 169 138 176 171 297 339 83 301 26 85 232 201 305 337 263 199 101 227 49 291 232 245 279 199 133 339 230 209 254
218 217 201 194 199 216 208 217 199 188 155 221 186 177 173 164 144 156 146 162 138 129 206 210 170 285 189 287 194 185 153 174 217 221 277 285 257 236 152 69 240 292 279 274
219 221 207 196 196 206 208 208 206 206 202 217 211 187 164 156 173 155 172 79 180 93 185 221 248 177 238 43 224 181 169 160 191 127 281 295 168 124 121 226 295 295 312 328
212 218 219 209 203 199 193 212 208 212 204 221 214 242 217 212 201 196 198 243 176 209 131 222 29 315 255 184 287 41 234 198 181 195 228 293 217 256 288 299 293 291 290 304
205 206 215 198 210 204 190 186 188 199 215 234 239 243 242 230 227 224 209 228 222 201 212 180 216 247 157 197 245 239 249 156 244 351 265 245 289 289 299 297 286 303 307 297
199 202 207 217 217 209 201 198 194 190 170 158 184 217 243 213 224 226 230 238 252 262 209 226 174 188 187 255 272 197 217 151 218 259 286 292 299 327 326 329 319 314 319 312
197 208 211 212 208 198 218 218 212 207 212 193 175 214 251 269 250 230 213 229 237 221 187 169 225 258 296 300 279 259 199 201 190 248 285 258 292 310 310 308 304 307 305 303
199 209 225 213 206 210 196 229 231 220 212 235 69 203 299 33 184 141 193 202 219 210 190 189 226 234 253 316 280 267 269 277 293 294 302 303 298 303 310 314 314 312 307 301
201 218 217 205 197 216 189 203 258 202 194 222 18 325 196 132 103 98 166 200 213 217 226 231 216 214 192 214 229 328 335 328 318 320 330 320 310 307 306 305 305 307 301 296
197 194 194 193 194 224 218 203 156 161 171 159 106 274 221 158 140 139 155 149 186 209 256 251 198 202 229 271 332 339 338 333 333 317 324 317 319 320 326 325 321 313 309 315
176 171 183 176 199 210 190 189 174 173 173 175 152 151 218 161 148 147 139 179 185 215 196 245 171 253 224 278 328 343 348 340 327 332 340 334 337 334 339 341 332 318 311 308
166 177 177 183 186 183 156 151 171 196 207 213 207 172 172 167 165 166 141 173 210 207 242 184 111 247 8 351 359 354 351 352 349 344 345 343 340 338 334 333 333 326 313 306
180 186 144 145 153 161 172 141 144 154 210 211 219 192 154 188 129 200 200 183 179 190 257 157 208 265 257 357 6 6 2 4 5 356 348 341 332 329 327 328 330 325 318 311
180 156 135 149 155 132 135 157 138 144 216 187 171 190 177 147 163 105 164 167 245 245 143 82 270 240 329 4 6 9 7 5 4 3 357 351 347 340 332 328 325 328 325 317
146 147 142 158 156 71 169 187 256 188 182 176 163 133 150 137 161 89 163 195 229 133 102 227 217 207 316 360 4 7 9 6 3 360 357 352 348 346 343 339 337 336 335 328
167 142 143 164 251 248 184 182 185 197 187 167 150 120 144 132 140 164 181 206 100 74 223 231 223 299 323 353 7 7 3 1 359 356 352 349 346 346 346 342 343 342 346 345
149 169 179 179 193 205 234 205 183 176 170 156 120 84 108 136 149 205 132 40 246 209 225 214 205 345 345 349 358 0 360 355 353 351 348 345 342 343 346 347 349 350 354 355
135 161 92 118 97 171 187 191 175 163 152 130 103 107 65 232 167 171 207 140 221 244 213 235 318 338 350 348 349 350 351 351 345 344 343 339 337 338 342 342 346 355 2 4
158 195 161 179 172 177 185 201 172 163 156 129 118 104 213 101 195 256 186 199 224 214 276 316 325 336 334 333 334 333 336 341 340 337 336 333 333 331 332 332 350 357 3 12